Location: Oakhurst
(33.6448°N, 111.9543°W)
Time: 01:20:26
(UTC+00:00)

EO-79 - Visible Passes

Search period start: 26 July 2021 00:00
Search period end: 05 August 2021 00:00
Orbit: 590 x 609 km, 97.9° (Epoch: 25 July)

Date Brightness Start Highest point End Pass type
(mag) Time Alt. Az. Time Alt. Az. Time Alt. Az.
26 Jul ? 08:10:40 10° NNE 08:11:21 14° NE 08:11:21 14° NE visible
26 Jul ? 09:47:34 10° NW 09:48:05 12° NW 09:48:05 12° NW visible
27 Jul ? 08:21:26 10° NNE 08:22:21 16° NNE 08:22:21 16° NNE visible
28 Jul ? 08:32:16 10° NNE 08:33:21 18° NNE 08:33:21 18° NNE visible
29 Jul ? 08:43:11 10° N 08:44:21 18° N 08:44:21 18° N visible
30 Jul ? 08:54:10 10° N 08:55:21 18° N 08:55:21 18° N visible
31 Jul ? 09:05:12 10° N 09:06:20 17° N 09:06:20 17° N visible
01 Aug ? 09:16:19 10° N 09:17:20 16° NNW 09:17:20 16° NNW visible
02 Aug ? 09:27:31 10° NNW 09:28:19 14° NNW 09:28:19 14° NNW visible
03 Aug ? 09:38:52 10° NNW 09:39:18 12° NNW 09:39:18 12° NNW visible
04 Aug ? 08:13:20 10° NNE 08:13:33 11° NNE 08:13:33 11° NNE visible
